Snowfall_Accumulation
0.0 0.0 0.0 0.0 0.0 0.0 0.0 0.0 0.0 0.0 0.0 0.0 0.0 0.0 0.0 0.0 0.0 0.0 0.0 nan nan nan nan nan nan nan nan nan nan nan nan nan nan nan nan nan nan nan
0.0 0.0 0.0 0.0 0.0 0.0 0.0 0.0 0.0 0.0 0.0 0.0 0.0 0.0 0.0 0.0 0.0 0.0 0.0 nan nan nan nan nan nan nan nan nan nan nan nan nan nan nan nan nan nan nan
0.0 0.0 0.0 0.0 0.0 0.0 0.0 0.0 0.0 0.0 0.0 0.0 0.0 0.0 0.0 0.0 0.0 0.0 0.0 0.0 0.0 nan nan nan nan nan nan nan nan nan nan nan nan nan nan nan nan nan
0.0 0.0 0.0 0.0 0.0 0.0 0.0 0.0 0.0 0.0 0.0 0.0 0.0 0.0 0.0 0.0 0.0 0.0 0.0 0.0 0.0 nan nan nan nan nan nan nan nan nan nan nan nan nan nan nan nan nan
0.0 0.0 0.0 0.0 0.0 0.0 0.0 0.0 0.0 0.0 0.0 0.0 0.0 0.0 0.0 0.0 0.1 0.0 0.0 0.0 0.0 nan nan nan nan nan nan nan nan nan nan nan nan nan nan nan nan nan
0.0 0.0 0.0 0.0 0.0 0.0 0.0 0.0 0.0 0.0 0.0 0.0 0.1 0.6 0.5 0.1 0.1 0.0 0.0 0.0 0.0 0.0 nan nan nan nan nan nan nan nan nan nan nan nan nan nan nan nan
0.0 0.0 0.0 nan nan nan 0.0 0.0 0.0 0.0 0.2 2.1 1.1 0.7 0.6 0.1 0.0 0.0 0.0 0.0 0.1 0.0 0.0 0.0 0.0 0.0 0.0 nan nan nan nan nan nan nan nan nan nan nan
0.0 0.0 0.0 0.0 0.0 nan nan nan nan 0.3 1.0 1.8 2.1 0.3 0.0 0.0 0.0 0.0 0.9 0.8 2.1 0.0 0.0 0.0 0.0 0.0 0.0 0.0 nan nan nan nan nan nan nan nan nan nan
0.0 0.0 0.0 0.0 nan 0.0 nan nan nan nan nan 0.0 0.0 0.0 0.0 0.0 1.1 1.3 0.4 0.6 0.2 0.0 0.1 0.4 0.0 0.0 0.0 0.0 nan nan nan nan nan nan nan nan nan nan
0.0 0.0 0.0 0.0 0.0 0.0 0.0 0.4 0.2 0.1 0.0 0.0 0.0 0.0 0.1 0.0 0.1 0.6 0.5 0.4 0.1 0.0 0.0 3.3 0.1 0.1 0.0 0.0 nan nan nan nan nan nan nan nan nan nan
0.0 0.0 0.0 0.0 nan nan 0.1 1.0 0.0 0.0 nan nan nan nan nan nan nan 0.5 1.7 3.1 0.9 0.2 0.2 0.7 0.5 0.8 0.5 0.2 0.0 nan nan nan nan nan nan nan nan nan
0.0 0.0 nan 0.0 nan nan 0.0 0.0 0.1 0.0 0.1 0.2 0.0 0.0 nan nan nan 0.0 2.2 9.4 4.7 3.3 0.6 5.2 1.6 2.0 5.9 0.7 0.7 0.2 0.0 nan nan nan nan nan nan 0.0
0.1 0.0 0.0 nan nan nan nan 0.0 0.0 0.0 0.0 0.0 0.0 0.0 0.0 0.1 0.0 0.1 0.3 7.1 11.5 7.3 0.7 4.3 7.4 2.7 3.3 3.5 1.4 1.3 0.8 0.4 0.2 0.1 nan nan nan 0.3
0.0 0.0 0.0 nan nan nan nan nan nan nan 0.0 0.0 0.3 0.6 1.3 1.7 1.3 1.1 0.4 1.1 1.5 5.5 1.7 4.5 19.5 8.8 11.0 6.3 3.9 1.9 1.9 1.3 1.8 1.5 1.5 nan nan nan
0.0 0.0 nan nan nan nan nan nan nan 0.2 0.2 1.1 1.3 2.3 2.6 3.0 2.7 3.3 2.4 2.6 4.1 2.3 2.6 5.5 11.0 9.5 10.1 9.9 6.7 3.5 4.8 2.6 2.8 4.3 1.8 1.4 1.3 1.1
nan 1.2 nan 0.0 nan nan 0.0 0.0 0.2 0.0 0.6 1.7 1.9 1.3 1.9 5.2 5.0 4.6 8.4 7.0 8.9 6.3 3.7 5.4 7.3 8.8 11.5 5.2 5.8 4.3 3.1 9.6 3.3 2.6 2.5 1.3 0.6 0.6
nan 0.0 0.0 0.0 0.3 0.0 0.0 0.0 0.0 0.0 1.3 1.5 2.8 3.0 2.7 4.5 5.5 6.0 8.8 9.9 12.3 10.1 8.5 5.7 2.4 2.8 3.9 5.6 7.6 3.0 2.7 3.4 3.8 4.1 3.2 2.6 1.5 1.2
0.0 0.0 0.5 0.6 0.7 0.1 0.2 0.2 0.2 1.0 1.5 3.0 3.4 4.0 6.5 7.9 9.2 9.9 10.9 11.4 12.3 8.8 9.0 8.0 8.2 8.1 6.0 4.2 4.7 3.9 3.4 3.9 3.7 2.9 2.0 4.8 3.9 1.0
0.0 1.3 1.3 1.3 1.2 1.3 1.7 2.4 4.0 2.1 3.4 6.9 7.6 8.4 9.6 9.5 10.6 10.6 11.2 9.2 8.7 8.5 9.7 10.0 12.4 12.8 12.3 10.2 3.0 nan 5.9 4.3 4.4 2.8 1.8 3.2 5.6 2.6
1.4 1.9 2.1 1.6 1.5 2.3 2.9 4.8 5.5 4.9 6.5 8.1 9.6 11.0 11.8 13.1 13.2 12.3 10.2 11.4 8.6 9.1 10.7 12.4 15.4 18.8 20.0 17.2 10.9 6.5 nan 4.3 3.7 4.1 6.2 1.6 0.9 nan
1.4 1.8 1.3 1.8 2.4 3.3 4.0 5.9 5.9 10.0 13.1 14.6 12.0 12.9 12.4 13.9 11.9 9.9 7.9 5.5 nan 8.2 11.3 10.8 12.2 nan 15.1 9.5 8.4 3.6 3.6 nan 1.0 5.5 5.5 3.9 3.9 1.4
1.1 1.5 1.6 2.2 3.0 4.7 7.0 7.9 9.3 9.5 10.9 10.7 11.5 12.6 11.8 11.2 11.3 8.2 5.1 7.7 5.1 7.2 10.6 10.3 7.8 9.6 13.2 11.9 9.5 4.8 3.4 1.8 nan nan nan nan 9.2 13.5
1.8 1.6 2.0 3.1 4.3 6.3 7.3 8.3 10.5 11.1 10.5 13.3 13.3 11.5 10.4 10.9 6.1 5.5 5.0 4.1 5.7 7.0 6.7 7.2 6.3 6.7 8.3 9.8 11.8 6.1 3.8 3.1 2.8 3.5 3.2 nan nan nan
Water_Equivalent
0.00 0.00 0.00 0.00 0.00 0.00 0.00 0.00 0.00 0.00 0.00 0.00 0.00 0.00 0.00 0.00 0.00 0.00 0.00 nan nan nan nan nan nan nan nan nan nan nan nan nan nan nan nan nan nan nan
0.00 0.00 0.00 0.00 0.00 0.00 0.00 0.00 0.00 0.00 0.00 0.00 0.00 0.00 0.00 0.00 0.00 0.00 0.00 nan nan nan nan nan nan nan nan nan nan nan nan nan nan nan nan nan nan nan
0.00 0.00 0.00 0.00 0.00 0.00 0.00 0.00 0.00 0.00 0.00 0.00 0.00 0.00 0.00 0.00 0.00 0.00 0.00 0.00 0.00 nan nan nan nan nan nan nan nan nan nan nan nan nan nan nan nan nan
0.00 0.00 0.00 0.00 0.00 0.00 0.00 0.00 0.00 0.00 0.00 0.00 0.00 0.00 0.00 0.00 0.00 0.00 0.00 0.00 0.00 nan nan nan nan nan nan nan nan nan nan nan nan nan nan nan nan nan
0.00 0.00 0.00 0.00 0.00 0.00 0.00 0.00 0.00 0.00 0.00 0.00 0.00 0.00 0.00 0.00 0.01 0.00 0.00 0.00 0.00 nan nan nan nan nan nan nan nan nan nan nan nan nan nan nan nan nan
0.00 0.00 0.00 0.00 0.00 0.00 0.00 0.00 0.00 0.00 0.00 0.00 0.02 0.10 0.09 0.01 0.02 0.00 0.00 0.00 0.00 0.00 nan nan nan nan nan nan nan nan nan nan nan nan nan nan nan nan
0.00 0.00 0.00 nan nan nan 0.00 0.00 0.00 0.00 0.04 0.35 0.18 0.11 0.09 0.01 0.00 0.00 0.00 0.00 0.02 0.00 0.00 0.00 0.00 0.00 0.00 nan nan nan nan nan nan nan nan nan nan nan
0.00 0.00 0.00 0.00 0.00 nan nan nan nan 0.05 0.16 0.30 0.33 0.04 0.00 0.00 0.00 0.00 0.12 0.12 0.28 0.00 0.00 0.00 0.00 0.00 0.00 0.00 nan nan nan nan nan nan nan nan nan nan
0.00 0.00 0.00 0.00 nan 0.00 nan nan nan nan nan 0.01 0.00 0.00 0.00 0.00 0.17 0.18 0.07 0.09 0.03 0.00 0.01 0.05 0.00 0.00 0.00 0.00 nan nan nan nan nan nan nan nan nan nan
0.00 0.00 0.00 0.00 0.00 0.00 0.01 0.08 0.04 0.02 0.00 0.00 0.00 0.00 0.02 0.00 0.01 0.08 0.07 0.05 0.02 0.01 0.00 0.44 0.02 0.03 0.00 0.00 nan nan nan nan nan nan nan nan nan nan
0.00 0.00 0.00 0.00 nan nan 0.02 0.16 0.01 0.00 nan nan nan nan nan nan nan 0.09 0.28 0.47 0.17 0.09 0.07 0.14 0.11 0.17 0.12 0.06 0.00 nan nan nan nan nan nan nan nan nan
0.00 0.00 nan 0.00 nan nan 0.01 0.00 0.02 0.00 0.02 0.04 0.00 0.00 nan nan nan 0.00 0.36 1.20 0.71 0.49 0.15 0.67 0.26 0.33 0.77 0.17 0.21 0.08 0.00 nan nan nan nan nan nan 0.01
0.02 0.00 0.00 nan nan nan nan 0.00 0.00 0.00 0.00 0.00 0.00 0.00 0.00 0.02 0.01 0.03 0.05 1.00 1.44 1.01 0.15 0.63 1.06 0.44 0.56 0.50 0.29 0.28 0.20 0.10 0.04 0.03 nan nan nan 0.06
0.00 0.00 0.00 nan nan nan nan nan nan nan 0.00 0.01 0.09 0.19 0.31 0.37 0.37 0.30 0.09 0.22 0.25 0.70 0.25 0.72 2.40 1.11 1.30 0.79 0.51 0.34 0.36 0.29 0.38 0.30 0.30 nan nan nan
0.00 0.01 nan nan nan nan nan nan nan 0.04 0.03 0.20 0.33 0.56 0.58 0.65 0.53 0.53 0.42 0.47 0.69 0.43 0.47 0.91 1.53 1.25 1.26 1.13 0.76 0.45 0.66 0.49 0.61 0.81 0.37 0.28 0.26 0.24
nan 0.22 nan 0.00 nan nan 0.00 0.00 0.04 0.00 0.08 0.22 0.29 0.27 0.40 0.79 0.70 0.69 1.14 1.04 1.23 0.94 0.65 0.90 0.98 1.05 1.30 0.65 0.72 0.54 0.48 1.20 0.58 0.57 0.57 0.38 0.18 0.15
nan 0.00 0.00 0.00 0.06 0.00 0.00 0.00 0.00 0.00 0.18 0.23 0.42 0.43 0.46 0.67 0.73 0.86 1.22 1.38 1.51 1.23 1.00 0.78 0.37 0.43 0.57 0.73 0.91 0.45 0.41 0.52 0.70 0.82 0.62 0.53 0.41 0.34
0.00 0.00 0.08 0.10 0.10 0.02 0.02 0.02 0.04 0.19 0.24 0.50 0.54 0.60 0.85 0.98 1.14 1.33 1.48 1.45 1.44 1.03 1.04 0.94 0.94 0.92 0.83 0.63 0.72 0.55 0.52 0.60 0.71 0.64 0.47 0.79 0.68 0.30
0.00 0.18 0.18 0.18 0.18 0.20 0.26 0.37 0.57 0.38 0.68 1.14 1.06 1.11 1.17 1.17 1.33 1.30 1.36 1.12 1.03 0.99 1.12 1.14 1.34 1.38 1.31 1.05 0.44 nan 0.83 0.67 0.73 0.51 0.40 0.59 0.91 0.65
0.20 0.26 0.29 0.24 0.23 0.34 0.43 0.70 0.77 0.70 0.92 1.11 1.25 1.39 1.54 1.67 1.62 1.44 1.20 1.26 0.99 1.07 1.17 1.36 1.71 2.10 2.19 1.85 1.16 0.83 nan 0.73 0.60 0.65 1.00 0.36 0.24 nan
0.20 0.25 0.19 0.29 0.37 0.53 0.59 0.77 0.77 1.24 1.70 1.85 1.51 1.69 1.64 1.72 1.40 1.15 0.92 0.64 nan 0.95 1.21 1.16 1.43 nan 2.02 1.19 0.97 0.47 0.60 nan 0.22 0.89 0.94 0.56 0.58 0.27
0.14 0.21 0.23 0.35 0.48 0.70 0.97 1.06 1.28 1.37 1.41 1.32 1.45 1.60 1.44 1.33 1.27 0.91 0.55 0.85 0.59 0.83 1.14 1.24 0.98 1.24 1.71 1.34 1.01 0.51 0.45 0.34 nan nan nan nan 1.39 1.72
0.23 0.21 0.35 0.53 0.71 0.84 0.98 1.08 1.40 1.42 1.33 1.65 1.65 1.38 1.21 1.21 0.66 0.60 0.56 0.47 0.66 0.78 0.73 0.77 0.76 0.86 0.99 1.15 1.28 0.71 0.44 0.39 0.41 0.52 0.59 nan nan nan
SL_Ratio
nan nan nan nan nan nan nan nan nan nan nan nan nan nan nan nan nan nan nan nan nan nan nan nan nan nan nan nan nan nan nan nan nan nan nan nan nan nan
nan nan nan nan nan nan nan nan nan nan nan nan nan nan nan nan nan nan nan nan nan nan nan nan nan nan nan nan nan nan nan nan nan nan nan nan nan nan
nan nan nan nan nan nan nan nan nan nan nan nan nan nan nan nan nan nan nan nan nan nan nan nan nan nan nan nan nan nan nan nan nan nan nan nan nan nan
nan nan nan nan nan nan nan nan nan nan nan nan nan nan nan nan nan nan nan nan nan nan nan nan nan nan nan nan nan nan nan nan nan nan nan nan nan nan
nan nan nan nan nan nan nan nan nan nan nan nan nan nan nan 5.0 5.2 nan nan nan nan nan nan nan nan nan nan nan nan nan nan nan nan nan nan nan nan nan
nan nan nan nan nan nan nan nan nan nan nan nan 5.8 5.7 5.5 5.2 5.1 10.0 nan nan nan nan nan nan nan nan nan nan nan nan nan nan nan nan nan nan nan nan
nan nan nan nan nan nan nan nan nan nan 5.6 6.0 6.1 6.1 5.9 7.2 nan nan nan nan 6.1 6.7 nan nan nan nan nan nan nan nan nan nan nan nan nan nan nan nan
nan nan nan nan nan nan nan nan nan 5.4 6.0 6.2 6.4 7.2 nan nan nan 5.9 6.9 7.1 7.5 nan nan 6.7 nan nan nan nan nan nan nan nan nan nan nan nan nan nan
nan nan nan nan nan nan nan nan nan nan nan 5.8 8.0 5.8 5.8 6.4 6.8 7.0 5.9 6.9 7.4 nan 6.2 7.6 nan nan nan nan nan nan nan nan nan nan nan nan nan nan
nan nan nan nan nan nan 4.8 5.2 5.3 5.2 nan nan nan 5.0 5.5 5.7 5.8 6.8 7.0 7.2 4.2 2.9 nan 7.4 2.7 3.2 2.5 nan nan nan nan nan nan nan nan nan nan nan
nan nan nan nan nan nan 4.6 6.0 5.7 nan nan nan nan nan nan nan nan 5.5 6.0 6.6 5.1 2.8 2.5 5.1 4.2 4.7 3.6 3.0 3.0 nan nan nan nan nan nan nan nan nan
nan nan nan nan nan nan 4.5 6.0 5.1 nan 6.3 5.8 nan nan nan nan nan nan 6.0 7.8 6.7 6.7 4.2 7.8 6.0 6.0 7.6 4.0 3.3 3.2 nan nan nan nan nan nan nan 4.7
4.3 nan nan nan nan nan nan 5.0 nan 5.0 5.6 nan nan 3.3 2.5 2.7 3.3 4.3 5.6 7.2 8.0 7.2 4.4 6.8 7.0 6.0 5.9 7.0 4.9 4.6 4.1 4.1 4.2 4.6 nan nan nan 4.7
5.6 nan 5.4 nan nan nan nan nan nan nan nan 5.3 3.3 3.1 4.3 4.4 3.6 3.7 4.2 5.2 5.8 7.8 6.6 6.2 8.1 7.9 8.4 7.9 7.6 5.6 5.3 4.6 4.8 4.8 5.2 nan nan nan
nan 4.7 nan nan nan nan nan nan nan 4.4 5.2 5.7 3.9 4.1 4.4 4.6 5.1 6.3 5.7 5.6 6.0 5.4 5.6 6.0 7.2 7.6 8.0 8.7 8.9 7.8 7.4 5.2 4.6 5.2 4.9 5.1 4.9 4.7
nan 5.4 nan nan nan nan nan nan 4.4 5.0 7.3 8.0 6.7 4.7 4.8 6.5 7.1 6.7 7.4 6.7 7.2 6.7 5.7 6.0 7.4 8.4 8.9 8.1 8.0 8.0 6.6 8.0 5.6 4.5 4.5 3.5 3.5 3.8
nan nan nan nan 4.9 nan nan nan nan 6.5 7.0 6.5 6.8 6.9 6.0 6.6 7.5 7.0 7.3 7.2 8.2 8.2 8.5 7.3 6.4 6.5 6.8 7.6 8.4 6.7 6.5 6.5 5.5 5.0 5.1 4.9 3.6 3.4
5.0 5.0 6.3 6.1 6.5 6.8 7.0 7.0 4.7 5.2 6.4 6.1 6.3 6.6 7.6 8.0 8.0 7.4 7.4 7.9 8.6 8.5 8.6 8.5 8.7 8.9 7.2 6.6 6.6 7.1 6.5 6.5 5.2 4.5 4.3 6.0 5.7 3.3
6.4 7.0 7.1 6.8 6.7 6.5 6.4 6.4 7.2 5.5 4.9 6.1 7.2 7.6 8.2 8.1 8.0 8.1 8.3 8.2 8.5 8.6 8.7 8.8 9.3 9.3 9.4 9.8 6.8 nan 7.0 6.4 6.0 5.5 4.6 5.5 6.1 4.0
7.1 7.2 7.0 6.8 6.6 6.6 6.7 6.8 7.1 7.0 7.1 7.3 7.7 7.9 7.7 7.8 8.1 8.5 8.5 9.0 8.7 8.5 9.2 9.1 9.0 8.9 9.1 9.3 9.4 7.9 nan 5.9 6.1 6.4 6.2 4.5 3.8 nan
7.3 7.0 6.5 6.4 6.5 6.2 6.8 7.7 7.7 8.1 7.7 7.9 7.9 7.6 7.6 8.1 8.5 8.6 8.6 8.6 nan 8.7 9.3 9.3 8.6 nan 7.5 8.0 8.6 7.6 6.0 nan 4.5 6.2 5.9 6.9 6.7 5.2
7.4 7.2 6.7 6.1 6.2 6.7 7.2 7.4 7.2 6.9 7.7 8.1 7.9 7.9 8.2 8.4 8.9 9.0 9.3 9.0 8.7 8.6 9.3 8.3 8.0 7.7 7.7 8.9 9.4 9.4 7.5 5.3 nan nan nan nan 6.6 7.8
7.5 7.3 5.8 5.8 6.1 7.5 7.5 7.7 7.5 7.9 7.9 8.1 8.1 8.4 8.6 9.1 9.3 9.2 9.0 8.6 8.6 9.0 9.2 9.4 8.3 7.7 8.4 8.5 9.2 8.5 8.7 7.8 6.7 6.9 5.5 nan nan nan